When you browse on this site, cookies collect data to enhance your experience and personalize the content and advertising you see.
Visit our Privacy Policy to learn more. By continuing to use the site, you agree to this use of cookies and data.
  • In Hungary
  • List of Countries
  • For 7 days
  • Water Temperature
  • Satellite Maps
  • Weather Map
  • News
  • Weather Widgets
  • user-avatar
    Login

    Hourly Weather Makhnivka (Krasnoye)

    Today, 17 July, Wednesday

    Time Temperature Precipitation Wind Pressure Humidity
    00:00 +14°C° 0 mm 2 mps 739 mmHg 91%
    01:00 +13°C° 0 mm 2 mps 739 mmHg 91%
    02:00 +12°C° 0 mm 2 mps 738 mmHg 93%
    03:00 +12°C° 0 mm 2 mps 738 mmHg 93%
    04:00 +12°C° 0 mm 2 mps 738 mmHg 94%
    05:00 +11°C° 0 mm 3 mps 738 mmHg 94%
    06:00 +12°C° 0 mm 3 mps 738 mmHg 91%
    07:00 +14°C° 0 mm 4 mps 738 mmHg 88%
    08:00 +15°C° 0 mm 4 mps 738 mmHg 83%
    09:00 +16°C° 0.1 mm 5 mps 738 mmHg 78%
    10:00 +17°C° 0.1 mm 5 mps 738 mmHg 73%
    11:00 +20°C° 0.1 mm 6 mps 738 mmHg 67%
    12:00 +20°C° 0.7 mm 6 mps 738 mmHg 69%
    13:00 +20°C° 0.7 mm 6 mps 737 mmHg 71%
    14:00 +20°C° 0.7 mm 6 mps 737 mmHg 72%
    15:00 +19°C° 0.5 mm 6 mps 737 mmHg 73%
    16:00 +19°C° 0.5 mm 5 mps 737 mmHg 74%
    17:00 +19°C° 0.5 mm 5 mps 737 mmHg 75%
    18:00 +18°C° 0.1 mm 4 mps 737 mmHg 79%
    19:00 +17°C° 0.1 mm 3 mps 737 mmHg 83%
    20:00 +14°C° 0.1 mm 3 mps 737 mmHg 88%
    21:00 +14°C° 0 mm 3 mps 738 mmHg 89%
    22:00 +13°C° 0 mm 3 mps 738 mmHg 91%
    23:00 +12°C° 0 mm 3 mps 738 mmHg 93%

    Tomorrow, 18 July, Thursday

    Time Temperature Precipitation Wind Pressure Humidity
    00:00 +12°C° 0 mm 3 mps 738 mmHg 93%
    01:00 +11°C° 0 mm 3 mps 738 mmHg 94%
    02:00 +11°C° 0 mm 3 mps 738 mmHg 95%
    03:00 +11°C° 0 mm 3 mps 738 mmHg 95%
    04:00 +10°C° 0 mm 3 mps 739 mmHg 95%
    05:00 +10°C° 0 mm 2 mps 739 mmHg 95%
    06:00 +12°C° 0 mm 3 mps 739 mmHg 92%
    07:00 +13°C° 0 mm 3 mps 739 mmHg 88%
    08:00 +15°C° 0 mm 4 mps 739 mmHg 84%
    09:00 +17°C° 0 mm 4 mps 740 mmHg 78%
    10:00 +18°C° 0 mm 4 mps 740 mmHg 72%
    11:00 +19°C° 0 mm 5 mps 740 mmHg 67%
    12:00 +20°C° 0 mm 4 mps 740 mmHg 65%
    13:00 +21°C° 0 mm 4 mps 740 mmHg 64%
    14:00 +21°C° 0 mm 4 mps 740 mmHg 63%
    15:00 +21°C° 0.1 mm 4 mps 740 mmHg 64%
    16:00 +21°C° 0.1 mm 4 mps 740 mmHg 65%
    17:00 +21°C° 0.1 mm 3 mps 740 mmHg 66%
    18:00 +20°C° 0 mm 3 mps 740 mmHg 71%
    19:00 +19°C° 0 mm 2 mps 740 mmHg 77%
    20:00 +18°C° 0 mm 1 mps 740 mmHg 83%
    21:00 +18°C° 0 mm 1 mps 741 mmHg 84%
    22:00 +16°C° 0 mm 1 mps 741 mmHg 86%
    23:00 +15°C° 0 mm 1 mps 741 mmHg 88%

    Day after tomorrow, 19 July, Friday

    Time Temperature Precipitation Wind Pressure Humidity
    00:00 +15°C° 0 mm 1 mps 741 mmHg 88%
    01:00 +14°C° 0 mm 1 mps 741 mmHg 89%
    02:00 +14°C° 0 mm 1 mps 741 mmHg 89%
    03:00 +13°C° 0 mm 1 mps 741 mmHg 89%
    04:00 +13°C° 0 mm 1 mps 741 mmHg 89%
    05:00 +13°C° 0 mm 1 mps 741 mmHg 89%
    06:00 +15°C° 0 mm 1 mps 742 mmHg 84%
    07:00 +18°C° 0 mm 1 mps 742 mmHg 78%
    08:00 +19°C° 0 mm 1 mps 742 mmHg 73%
    09:00 +21°C° 0 mm 1 mps 742 mmHg 68%
    10:00 +22°C° 0 mm 1 mps 742 mmHg 64%
    11:00 +24°C° 0 mm 1 mps 743 mmHg 59%
    12:00 +24°C° 0.1 mm 1 mps 742 mmHg 57%
    13:00 +25°C° 0.1 mm 1 mps 742 mmHg 55%
    14:00 +25°C° 0.1 mm 2 mps 742 mmHg 54%
    15:00 +25°C° 0 mm 2 mps 742 mmHg 54%
    16:00 +25°C° 0 mm 2 mps 742 mmHg 54%
    17:00 +25°C° 0 mm 2 mps 742 mmHg 55%
    18:00 +23°C° 0 mm 1 mps 742 mmHg 61%
    19:00 +22°C° 0 mm 1 mps 742 mmHg 68%
    20:00 +20°C° 0 mm 1 mps 742 mmHg 74%
    21:00 +19°C° 0 mm 1 mps 742 mmHg 76%
    22:00 +18°C° 0 mm 1 mps 743 mmHg 77%
    23:00 +17°C° 0 mm 2 mps 743 mmHg 79%

    20 July, Saturday

    Time Temperature Precipitation Wind Pressure Humidity
    00:00 +16°C° 0 mm 2 mps 743 mmHg 80%
    01:00 +16°C° 0 mm 2 mps 743 mmHg 81%
    02:00 +16°C° 0 mm 2 mps 743 mmHg 82%
    03:00 +15°C° 0 mm 2 mps 743 mmHg 83%
    04:00 +15°C° 0 mm 1 mps 743 mmHg 84%
    05:00 +15°C° 0 mm 1 mps 743 mmHg 85%
    06:00 +18°C° 0 mm 1 mps 743 mmHg 81%
    07:00 +20°C° 0 mm 1 mps 743 mmHg 78%
    08:00 +21°C° 0 mm 1 mps 744 mmHg 74%
    09:00 +23°C° 0.3 mm 1 mps 744 mmHg 71%
    10:00 +24°C° 0.3 mm 1 mps 744 mmHg 67%
    11:00 +25°C° 0.3 mm 1 mps 744 mmHg 64%
    12:00 +26°C° 1.5 mm 1 mps 744 mmHg 63%
    13:00 +26°C° 1.5 mm 1 mps 744 mmHg 63%
    14:00 +26°C° 1.5 mm 1 mps 744 mmHg 63%
    15:00 +26°C° 0.7 mm 1 mps 744 mmHg 64%
    16:00 +26°C° 0.7 mm 1 mps 744 mmHg 65%
    17:00 +26°C° 0.7 mm 1 mps 743 mmHg 66%
    18:00 +24°C° 0.2 mm 1 mps 744 mmHg 71%
    19:00 +23°C° 0.2 mm 1 mps 744 mmHg 75%
    20:00 +21°C° 0.2 mm 1 mps 744 mmHg 80%
    21:00 +21°C° 0 mm 1 mps 744 mmHg 82%
    22:00 +20°C° 0 mm 1 mps 744 mmHg 84%
    23:00 +19°C° 0 mm 1 mps 744 mmHg 86%

    21 July, Sunday

    Time Temperature Precipitation Wind Pressure Humidity
    00:00 +19°C° 0 mm 1 mps 744 mmHg 86%
    01:00 +18°C° 0 mm 1 mps 744 mmHg 87%
    02:00 +18°C° 0 mm 1 mps 744 mmHg 87%
    03:00 +18°C° 0 mm 1 mps 744 mmHg 88%
    04:00 +18°C° 0 mm 1 mps 744 mmHg 88%
    05:00 +18°C° 0 mm 1 mps 744 mmHg 89%
    06:00 +19°C° 0 mm 1 mps 744 mmHg 86%
    07:00 +21°C° 0 mm 1 mps 744 mmHg 82%
    08:00 +22°C° 0 mm 1 mps 744 mmHg 79%
    09:00 +24°C° 0 mm 1 mps 745 mmHg 75%
    10:00 +25°C° 0 mm 1 mps 745 mmHg 70%
    11:00 +26°C° 0 mm 1 mps 745 mmHg 66%
    12:00 +27°C° 0 mm 1 mps 745 mmHg 64%
    13:00 +27°C° 0 mm 1 mps 744 mmHg 62%
    14:00 +28°C° 0 mm 1 mps 744 mmHg 59%
    15:00 +28°C° 0 mm 1 mps 744 mmHg 59%
    16:00 +28°C° 0 mm 1 mps 744 mmHg 58%
    17:00 +26°C° 0 mm 0 mps 744 mmHg 58%
    18:00 +27°C° 0.1 mm 1 mps 743 mmHg 64%
    19:00 +25°C° 0.1 mm 1 mps 743 mmHg 70%
    20:00 +23°C° 0.1 mm 1 mps 743 mmHg 76%
    21:00 +23°C° 0.5 mm 1 mps 743 mmHg 79%
    22:00 +22°C° 0.5 mm 1 mps 743 mmHg 83%
    23:00 +21°C° 0.5 mm 1 mps 744 mmHg 86%

    22 July, Monday

    Time Temperature Precipitation Wind Pressure Humidity
    00:00 +21°C° 0 mm 1 mps 743 mmHg 87%
    01:00 +20°C° 0 mm 1 mps 743 mmHg 89%
    02:00 +19°C° 0 mm 2 mps 743 mmHg 90%
    03:00 +18°C° 0 mm 2 mps 743 mmHg 92%
    04:00 +18°C° 0 mm 2 mps 743 mmHg 93%
    05:00 +18°C° 0 mm 2 mps 743 mmHg 95%
    06:00 +19°C° 0 mm 3 mps 743 mmHg 93%
    07:00 +20°C° 0 mm 3 mps 743 mmHg 91%
    08:00 +20°C° 0 mm 4 mps 743 mmHg 89%
    09:00 +22°C° 0.4 mm 4 mps 743 mmHg 84%
    10:00 +23°C° 0.4 mm 4 mps 743 mmHg 80%
    11:00 +25°C° 0.4 mm 4 mps 743 mmHg 75%
    12:00 +25°C° 0.6 mm 4 mps 743 mmHg 76%
    13:00 +25°C° 0.6 mm 5 mps 743 mmHg 76%
    14:00 +25°C° 0.6 mm 5 mps 742 mmHg 77%
    15:00 +25°C° 0.4 mm 5 mps 742 mmHg 78%
    16:00 +25°C° 0.4 mm 4 mps 742 mmHg 79%
    17:00 +23°C° 0.4 mm 4 mps 742 mmHg 80%
    18:00 +22°C° 1 mm 4 mps 742 mmHg 83%
    19:00 +21°C° 1 mm 4 mps 742 mmHg 86%
    20:00 +20°C° 1 mm 3 mps 742 mmHg 89%
    21:00 +19°C° 0 mm 3 mps 742 mmHg 91%
    22:00 +18°C° 0 mm 3 mps 742 mmHg 92%
    23:00 +18°C° 0 mm 2 mps 742 mmHg 93%
    Show more